TimeEST,TemperatureF,Dew PointF,Humidity,Sea Level PressureIn,VisibilityMPH,Wind Direction,Wind SpeedMPH,Gust SpeedMPH,PrecipitationIn,Events,Conditions,WindDirDegrees,DateUTC
12:15 AM,53.6,50.0,88,30.40,10.0,West,5.8,-,N/A,,Clear,280,2013-01-10 05:15:00
12:35 AM,53.6,48.2,82,30.39,10.0,West,4.6,-,N/A,,Clear,280,2013-01-10 05:35:00
12:55 AM,51.8,50.0,94,30.40,10.0,West,5.8,-,N/A,,Clear,280,2013-01-10 05:55:00
1:15 AM,50.0,48.2,94,30.40,10.0,West,5.8,-,N/A,,Clear,280,2013-01-10 06:15:00
1:35 AM,48.2,46.4,93,30.41,10.0,West,4.6,-,N/A,,Clear,270,2013-01-10 06:35:00
1:55 AM,50.0,48.2,94,30.40,10.0,WNW,5.8,-,N/A,,Clear,290,2013-01-10 06:55:00
3:15 AM,46.4,44.6,93,30.43,5.0,Calm,Calm,-,N/A,,Clear,0,2013-01-10 08:15:00
3:35 AM,46.4,44.6,93,30.44,4.0,North,3.5,-,N/A,,Clear,10,2013-01-10 08:35:00
3:55 AM,44.6,42.8,93,30.44,5.0,NNE,3.5,-,N/A,,Clear,30,2013-01-10 08:55:00
4:15 AM,44.6,42.8,93,30.45,5.0,Calm,Calm,-,N/A,,Clear,0,2013-01-10 09:15:00
4:35 AM,46.4,44.6,93,30.45,3.0,NNE,3.5,-,N/A,,Clear,20,2013-01-10 09:35:00
4:55 AM,44.6,42.8,93,30.45,4.0,NNE,3.5,-,N/A,,Clear,20,2013-01-10 09:55:00
5:15 AM,44.6,42.8,93,30.47,7.0,Calm,Calm,-,N/A,,Clear,0,2013-01-10 10:15:00
5:35 AM,42.8,41.0,93,30.47,5.0,Calm,Calm,-,N/A,,Clear,0,2013-01-10 10:35:00
5:55 AM,42.8,39.2,87,30.48,5.0,NNE,4.6,-,N/A,,Clear,30,2013-01-10 10:55:00
6:15 AM,42.8,39.2,87,30.49,10.0,Calm,Calm,-,N/A,,Clear,0,2013-01-10 11:15:00
6:35 AM,41.0,39.2,93,30.49,10.0,NNE,3.5,-,N/A,,Clear,30,2013-01-10 11:35:00
6:55 AM,39.2,37.4,93,30.51,10.0,NNE,3.5,-,N/A,,Clear,20,2013-01-10 11:55:00
7:35 AM,39.2,37.4,93,30.53,10.0,NNE,3.5,-,N/A,,Clear,30,2013-01-10 12:35:00
7:55 AM,39.2,37.4,93,30.54,10.0,Calm,Calm,-,N/A,,Clear,0,2013-01-10 12:55:00
8:15 AM,42.8,41.0,93,30.55,10.0,Calm,Calm,-,N/A,,Clear,0,2013-01-10 13:15:00
8:35 AM,44.6,42.8,93,30.56,10.0,NE,4.6,-,N/A,,Clear,40,2013-01-10 13:35:00
8:55 AM,46.4,41.0,81,30.57,10.0,Calm,Calm,-,N/A,,Clear,0,2013-01-10 13:55:00
9:15 AM,48.2,37.4,66,30.58,10.0,NE,4.6,-,N/A,,Clear,40,2013-01-10 14:15:00
9:35 AM,51.8,37.4,58,30.59,10.0,NE,3.5,-,N/A,,Clear,40,2013-01-10 14:35:00
9:55 AM,53.6,35.6,51,30.59,10.0,NNE,8.1,-,N/A,,Clear,30,2013-01-10 14:55:00
10:15 AM,55.4,35.6,47,30.58,10.0,ENE,5.8,-,N/A,,Clear,60,2013-01-10 15:15:00
10:35 AM,57.2,33.8,41,30.58,10.0,ENE,5.8,-,N/A,,Clear,60,2013-01-10 15:35:00
10:55 AM,60.8,33.8,36,30.58,10.0,ENE,5.8,-,N/A,,Clear,70,2013-01-10 15:55:00
11:15 AM,59.0,33.8,39,30.57,10.0,ENE,4.6,-,N/A,,Clear,60,2013-01-10 16:15:00
11:35 AM,55.4,32.0,41,30.56,10.0,ENE,3.5,-,N/A,,Clear,60,2013-01-10 16:35:00
11:55 AM,60.8,33.8,36,30.55,10.0,Calm,Calm,-,N/A,,Clear,0,2013-01-10 16:55:00
12:15 PM,60.8,30.2,31,30.53,10.0,Calm,Calm,-,N/A,,Clear,0,2013-01-10 17:15:00
12:35 PM,60.8,30.2,31,30.53,10.0,Calm,Calm,-,N/A,,Clear,0,2013-01-10 17:35:00
12:55 PM,60.8,30.2,31,30.52,10.0,Calm,Calm,-,N/A,,Clear,0,2013-01-10 17:55:00
1:15 PM,62.6,30.2,30,30.51,10.0,Calm,Calm,-,N/A,,Clear,0,2013-01-10 18:15:00
1:35 PM,62.6,30.2,30,30.51,10.0,ENE,4.6,-,N/A,,Clear,60,2013-01-10 18:35:00
1:55 PM,62.6,28.4,27,30.52,10.0,ENE,3.5,-,N/A,,Clear,60,2013-01-10 18:55:00
2:15 PM,62.6,30.2,30,30.51,10.0,Calm,Calm,-,N/A,,Clear,0,2013-01-10 19:15:00
2:35 PM,62.6,30.2,30,30.50,10.0,NE,4.6,-,N/A,,Clear,50,2013-01-10 19:35:00
2:55 PM,62.6,30.2,30,30.51,10.0,Calm,Calm,-,N/A,,Clear,0,2013-01-10 19:55:00
3:15 PM,60.8,33.8,36,30.51,10.0,ENE,4.6,-,N/A,,Clear,70,2013-01-10 20:15:00
3:35 PM,57.2,35.6,44,30.51,10.0,ENE,6.9,-,N/A,,Clear,70,2013-01-10 20:35:00
3:55 PM,53.6,35.6,51,30.53,10.0,East,3.5,-,N/A,,Clear,80,2013-01-10 20:55:00
4:15 PM,51.8,33.8,50,30.52,10.0,ESE,3.5,-,N/A,,Clear,110,2013-01-10 21:15:00
4:35 PM,51.8,35.6,54,30.52,10.0,East,3.5,-,N/A,,Clear,90,2013-01-10 21:35:00
4:55 PM,51.8,33.8,50,30.52,10.0,Calm,Calm,-,N/A,,Clear,0,2013-01-10 21:55:00
5:15 PM,50.0,33.8,54,30.51,10.0,ESE,6.9,-,N/A,,Clear,110,2013-01-10 22:15:00
5:35 PM,48.2,33.8,58,30.51,10.0,Calm,Calm,-,N/A,,Clear,0,2013-01-10 22:35:00
5:55 PM,48.2,33.8,58,30.51,10.0,Calm,Calm,-,N/A,,Clear,0,2013-01-10 22:55:00
6:15 PM,46.4,33.8,62,30.52,10.0,Calm,Calm,-,N/A,,Clear,0,2013-01-10 23:15:00
6:35 PM,46.4,33.8,62,30.52,10.0,Calm,Calm,-,N/A,,Clear,0,2013-01-10 23:35:00
6:55 PM,46.4,33.8,62,30.53,10.0,Calm,Calm,-,N/A,,Clear,0,2013-01-10 23:55:00
7:15 PM,46.4,35.6,66,30.52,10.0,Calm,Calm,-,N/A,,Clear,0,2013-01-11 00:15:00
7:35 PM,44.6,33.8,66,30.52,10.0,Calm,Calm,-,N/A,,Clear,0,2013-01-11 00:35:00
7:55 PM,44.6,35.6,71,30.52,10.0,Calm,Calm,-,N/A,,Clear,0,2013-01-11 00:55:00
8:15 PM,42.8,35.6,76,30.51,10.0,Calm,Calm,-,N/A,,Clear,0,2013-01-11 01:15:00
8:35 PM,42.8,33.8,70,30.52,10.0,Calm,Calm,-,N/A,,Clear,0,2013-01-11 01:35:00
8:55 PM,42.8,33.8,70,30.53,10.0,Calm,Calm,-,N/A,,Clear,0,2013-01-11 01:55:00
9:15 PM,39.2,33.8,81,30.52,10.0,Calm,Calm,-,N/A,,Clear,0,2013-01-11 02:15:00
9:35 PM,39.2,33.8,81,30.53,10.0,Calm,Calm,-,N/A,,Clear,0,2013-01-11 02:35:00
9:55 PM,39.2,33.8,81,30.52,10.0,Calm,Calm,-,N/A,,Clear,0,2013-01-11 02:55:00
10:15 PM,39.2,33.8,81,30.52,10.0,Calm,Calm,-,N/A,,Clear,0,2013-01-11 03:15:00
10:35 PM,37.4,33.8,87,30.52,10.0,Calm,Calm,-,N/A,,Clear,0,2013-01-11 03:35:00
10:55 PM,37.4,33.8,87,30.52,10.0,Calm,Calm,-,N/A,,Clear,0,2013-01-11 03:55:00
11:15 PM,37.4,33.8,87,30.52,10.0,Calm,Calm,-,N/A,,Clear,0,2013-01-11 04:15:00
11:35 PM,37.4,33.8,87,30.51,10.0,East,3.5,-,N/A,,Clear,90,2013-01-11 04:35:00
11:55 PM,37.4,33.8,87,30.51,10.0,ESE,3.5,-,N/A,,Clear,110,2013-01-11 04:55:00